SPAWAR-CAL-O

operational
NORAD ID: 43766 Int'l Des: 2018-099 Owner: SPAWAR Country: US
LEOCIRCULARRETROGRADESSO

About SPAWAR-CAL-O

Description loading...

Live Position

Loading 3D Globe...

Upcoming Passes

Altitude History

Altitude vs Time

uPlot chart will show altitude changes over time

Two-Line Element Set

1 43766U 18099J 26061.15894104 .00021706 00000-0 72607-3 0 9991
2 43766 97.4473 124.4879 0007440 317.1357 42.9303 15.30974284397125
Epoch: Mar 2, 2026 • Age: 30 hours

Current Status

Altitude 472.4 km
Velocity 7.63 km/s
Sub-Earth Point 0.16°N, 132.7°W
Launch Date Dec 3, 2018
Age 7.2 years
Type other

Technical Details

Classification Payload
Mass 1.00 kg
Dry Mass 1.00 kg
Total Mass 1.00 kg
Length 0.10 m
Diameter 0.10 m
Span 0.10 m
Shape Box
Manufacturer SPAWAR
Bus Type Cubesat 1U
Phase Status In Orbit
Owner/State SPAWAR/US

Large Constellations

Loading constellations...